This demonstration page uses our WeatherBlox Daily Observations layout. Learn more.

Left ArrowRight Arrow

39.01783, -85.05884

Hourly Observations for March 11, 2020

Temp ( °F °C ) Dew Point ( °F °C ) Humidity (%) Winds ( mph kmh ) Pressure ( in mb ) Visibility ( mi km ) Precip ( " mm )
12:33 am 00:33 Cloudy 45 7.2 40 4.4 83 83 NNE 7 11 30.22 1023 9 14 0.00 0.00
12:52 am 00:52 Cloudy 44 6.7 40 4.4 85 85 NNE 5 7 30.19 1022 10 16 0.00 0.00
1:05 am 01:05 Cloudy 44 6.7 40 4.4 85 85 Calm 30.21 1023 9 14 0.00 0.00
1:37 am 01:37 Cloudy 44 6.7 40 4.4 85 85 N 3 6 30.21 1023 9 14 0.00 0.00
1:52 am 01:52 Cloudy 44 6.7 40 4.4 85 85 N 3 6 30.19 1022 9 14 0.00 0.00
2:26 am 02:26 Cloudy 44 6.7 40 4.4 85 85 NNE 3 6 30.19 1022 8 13 0.00 0.00
2:52 am 02:52 Cloudy 44 6.7 40 4.4 85 85 N 3 6 30.16 1021 8 13 0.00 0.00
3:14 am 03:14 Cloudy 44 6.7 40 4.4 85 85 ENE 3 6 30.16 1021 7 11 0.00 0.00
3:52 am 03:52 Cloudy with Mist and Fog 44 6.7 40 4.4 85 85 Calm 30.13 1020 6 10 0.00 0.00
4:52 am 04:52 Cloudy with Mist and Fog 44 6.7 41 5 89 89 W 3 6 30.11 1020 4 6 0.00 0.00
5:52 am 05:52 Cloudy with Mist and Fog 43 6.1 40 4.4 89 89 N 7 11 30.12 1020 3 5 0.00 0.00
6:22 am 06:22 Cloudy with Drizzle 43 6.1 40 4.4 89 89 NNW 5 7 30.14 1021 1 2 0.00 0.00
6:37 am 06:37 Cloudy with Drizzle 42 5.6 41 5 96 96 Calm 30.13 1020 1 2 0.00 0.00
6:52 am 06:52 Cloudy with Drizzle 42 5.6 41 5 96 96 Calm 30.10 1019 1 2 0.00 0.00
7:24 am 07:24 Cloudy with Mist and Fog 43 6.1 41 5 93 93 SSE 5 7 30.09 1019 1 2 0.00 0.00
7:52 am 07:52 Cloudy with Mist and Fog 44 6.7 41 5 89 89 S 3 6 30.08 1019 1 2 0.00 0.00
8:14 am 08:14 Cloudy with Mist and Fog 44 6.7 41 5 89 89 S 5 7 30.06 1018 1 2 0.00 0.00
8:52 am 08:52 Cloudy with Mist and Fog 45 7.2 42 5.6 90 90 Calm 30.07 1018 1 2 0.00 0.00
9:52 am 09:52 Cloudy with Mist and Fog 45 7.2 42 5.6 90 90 Calm 30.07 1018 3 4 0.00 0.00
10:52 am 10:52 Cloudy with Mist and Fog 45 7.2 43 6.1 93 93 W 6 9 30.09 1019 2 2 0.00 0.00
11:52 am 11:52 Cloudy with Mist and Fog 46 7.8 43 6.1 89 89 WSW 6 9 30.07 1018 3 5 0.00 0.00
12:52 pm 12:52 Cloudy with Mist and Fog 46 7.8 42 5.6 86 86 W 6 9 30.07 1018 4 6 0.00 0.00
1:32 pm 13:32 Cloudy with Mist and Fog 47 8.3 43 6.1 86 86 W 6 9 30.09 1019 6 10 0.00 0.00
1:52 pm 13:52 Cloudy 48 8.9 42 5.6 80 80 WSW 7 11 30.06 1018 7 11 0.00 0.00
1:59 pm 13:59 Cloudy 48 8.9 42 5.6 80 80 SW 9 15 30.07 1018 9 14 0.00 0.00
2:52 pm 14:52 Cloudy 48 8.9 41 5 77 77 SW 8 13 30.04 1017 9 14 0.00 0.00
3:31 pm 15:31 Cloudy 50 10 41 5 71 71 WSW 7 11 30.04 1017 10 16 0.00 0.00
3:52 pm 15:52 Cloudy 50 10 41 5 71 71 SW 8 13 30.01 1016 10 16 0.00 0.00
4:52 pm 16:52 Cloudy 51 10.6 40 4.4 66 66 SW 9 15 30.02 1017 10 16 0.00 0.00
5:41 pm 17:41 Mostly Cloudy 51 10.6 40 4.4 66 66 S 5 7 30.02 1017 10 16 0.00 0.00
5:52 pm 17:52 Mostly Cloudy 53 11.7 41 5 64 64 W 7 11 30.01 1016 10 16 0.00 0.00
6:52 pm 18:52 Cloudy 51 10.6 40 4.4 66 66 SW 6 9 30.01 1016 10 16 0.00 0.00
7:52 pm 19:52 Cloudy 50 10 40 4.4 68 68 NW 5 7 30.00 1016 10 16 0.00 0.00
8:52 pm 20:52 Mostly Cloudy 47 8.3 40 4.4 77 77 N 6 9 29.99 1016 10 16 0.00 0.00
9:52 pm 21:52 Partly Cloudy 45 7.2 39 3.9 80 80 N 5 7 30.00 1016 10 16 0.00 0.00
10:52 pm 22:52 Mostly Clear 44 6.7 39 3.9 83 83 Calm 30.00 1016 10 16 0.00 0.00
11:17 pm 23:17 Mostly Cloudy 43 6.1 38 3.3 82 82 Calm 30.03 1017 9 14 0.00 0.00
11:52 pm 23:52 Cloudy 43 6.1 39 3.9 86 86 Calm 30.01 1016 9 14 0.00 0.00

Powered by AerisWeather